Regional Weather Roundup
Issued by NWS Portland, ME

Home | Current Version | Previous Version | Text Only | Print | Product List | Glossary On
Versions: 1 2 3 4 5 6 7 8 9 10 11 12 13 14 15 16 17 18 19 20 21 22 23 24 25 26 27 28 29 30 31 32 33 34 35 36 37 38 39 40 41 42 43 44 45 46 47 48 49 50
025
ASUS41 KGYX 311510
RWRGYX
WEATHER ROUNDUP FOR MAINE AND NEW HAMPSHIRE
NATIONAL WEATHER SERVICE GRAY ME
1100 AM EDT TUE MAY 31 2016

MEZ002-005-006-010-012-015-018-020-021-024-026-027-029-311600-
MAINE

CITY           SKY/WX    TMP DP  RH WIND       PRES   REMARKS
PORTLAND       PTSUNNY   79  55  43 W13       29.83F
SANFORD        MOSUNNY   79  48  34 W14G20    29.87F
BAR HARBOR     SUNNY     78  63  59 S9        29.80F
WISCASSET      MOSUNNY   80  61  52 VRB6      29.82F
ROCKLAND       SUNNY     80  61  52 VRB6      29.81F
FRYEBURG       SUNNY     80  47  31 NW8       29.85F
LEWISTONAUBURN MOSUNNY  N/A N/A N/A NW8       29.83F
AUGUSTA        SUNNY     77  55  46 W9        29.83F
WATERVILLE     MOSUNNY   77  55  46 W9        29.80F
BANGOR         MOSUNNY   82  55  39 W9        29.79F
GREENVILLE       N/A     70  50  49 VRB3      29.81S
MILLINOCKET    PTSUNNY   77  57  50 NW8G17    29.78F
HOULTON        PTSUNNY   78  58  49 SW14      29.74F
PRESQUE ISLE   SUNNY     75  54  47 VRB7G16   29.74F
FRENCHVILLE    MOSUNNY   73  55  53 W14       29.74F
CARIBOU        SUNNY     77  53  43 VRB7      29.73S
$$

NHZ002-005-008-009-011-012-014-311600-
NEW HAMPSHIRE

CITY           SKY/WX    TMP DP  RH WIND       PRES   REMARKS
PORTSMOUTH     PTSUNNY   80  51  36 W13       29.86F
ROCHESTER      CLOUDY    78  48  34 NW8       29.87F
NASHUA         CLOUDY    78  50  37 W9        29.91F
MANCHESTER     CLOUDY    78  47  33 W10       29.89F
CONCORD        CLOUDY    78  47  33 W10       29.89F
LACONIA        SUNNY     78  48  34 W9G21     29.90F
PLYMOUTH       FAIR      76  43  31 W9G22     29.89S
BERLIN           N/A    N/A N/A N/A MISG        N/A
WHITEFIELD     SUNNY     74  49  41 W14G22    29.89F
JAFFREY        CLOUDY    74  49  41 VRB6      29.94F
KEENE          SUNNY    N/A N/A N/A NW10G17   29.93S
LEBANON        SUNNY     78  47  33 W8        29.89F
MT WASHINGTON  MOSUNNY   46  41  81 W45G53      N/A
$$

VTZ005-007-008-311600-
VERMONT

CITY           SKY/WX    TMP DP  RH WIND       PRES   REMARKS
ST JOHNSBURY     N/A     76  45  33 MISG      29.86F
MONTPELIER     FAIR      72  45  37 W9G22     29.94F
BURLINGTON     FAIR      75  48  38 W10       29.90S
$$

MAZ007-012-024-CTZ003-RIZ002-NYZ038-NYZ072-311600-
SOUTHERN NEW ENGLAND AND NY

CITY           SKY/WX    TMP DP  RH WIND       PRES   REMARKS
BOSTON         PTSUNNY   80  52  37 W12G20    29.91F
WORCESTER      CLOUDY    75  47  36 W13       29.96F
NANTUCKET      CLOUDY    64  61  90 SW13      29.98S
PROVIDENCE     PTSUNNY   79  59  50 W7        29.95F
HARTFORD       CLOUDY    78  54  43 VRB6      29.95S
ALBANY         MOSUNNY   76  52  43 NW15      29.96F
NEW YORK CITY  PTSUNNY   79  61  53 NE10G18   29.97S
$$

ANZ081-ANZ082-ANZ150-NHZ014-MEZ023>029-311600-
COASTAL MARINE OBSERVATIONS

STATION/POSITION TIME  TEMP    WIND        PRES    WAVE
                       AIR SEA DIR/SP/G            HT/PER
                 (UTC) (F)     (DEG/KT/KT) (MB)    (FT/S)
MOUNT DESERT ROC 1500   53     230/ 14/ 14 1010.2S
MATINICUS ROCK   1500   55     220/ 17/ 18 1009.9F
ISLE OF SHOALS   1500   72     260/ 13/ 14 1011.3F
JEFFREYS LEDGE   1408      54                N/A     2/ 6
CASHES LEDGE BUO 1450   55 51  230/ 14/ 16 1010.8F   3/ 5
GEORGES BANK BUO 1450   59 53              1015.8F   4/ 6
$$

.............KEY..............
   WCI - WIND CHILL
   TC  - TEMPERATURE IN CELSIUS
   VSB - VISIBILITY IN MILES
   HX  - HEAT INDEX
   FAIR- INDICATES FEW OR NO CLOUDS BELOW 12,000 FT, WITH NO
         SIGNIFICANT WEATHER AND/OR OBSTRUCTIONS TO VISIBILITY.






USA.gov is the U.S. government's official web portal to all federal, state and local government web resources and services.